Time,TemperatureF,DewpointF,PressureIn,WindDirection,WindDirectionDegrees,WindSpeedMPH,WindSpeedGustMPH,Humidity,HourlyPrecipIn,Conditions,Clouds,dailyrainin,SoftwareType,DateUTC
2013-04-01 00:03:00,55.0,46.1,29.94,NE,55,0.0,5.0,72,0.00,,,0.00,Weather View 32 v70,2013-04-01 07:03:00,
2013-04-01 00:08:00,55.0,46.1,29.94,NE,55,0.0,5.0,72,0.00,,,0.00,Weather View 32 v70,2013-04-01 07:08:00,
2013-04-01 00:15:00,55.4,46.5,29.94,West,269,0.0,6.0,72,0.00,,,0.00,Weather View 32 v70,2013-04-01 07:15:00,
2013-04-01 00:20:00,55.7,47.2,29.94,West,271,3.0,6.0,73,0.00,,,0.00,Weather View 32 v70,2013-04-01 07:20:00,
2013-04-01 00:25:00,56.6,47.7,29.95,WSW,254,0.0,6.0,72,0.00,,,0.00,Weather View 32 v70,2013-04-01 07:25:00,
2013-04-01 00:30:00,57.5,47.8,29.95,West,269,2.0,6.0,70,0.00,,,0.00,Weather View 32 v70,2013-04-01 07:30:00,
2013-04-01 00:35:00,58.0,47.9,29.94,West,269,0.0,6.0,69,0.00,,,0.00,Weather View 32 v70,2013-04-01 07:35:00,
2013-04-01 00:40:00,58.1,47.6,29.95,WNW,287,2.0,8.0,68,0.00,,,0.00,Weather View 32 v70,2013-04-01 07:40:00,
2013-04-01 00:45:00,57.8,47.3,29.95,WNW,287,0.0,8.0,68,0.00,,,0.00,Weather View 32 v70,2013-04-01 07:45:00,
2013-04-01 00:50:00,57.2,46.7,29.95,WNW,287,0.0,8.0,68,0.00,,,0.00,Weather View 32 v70,2013-04-01 07:50:00,
2013-04-01 00:55:00,56.6,46.9,29.95,WNW,286,0.0,8.0,70,0.00,,,0.00,Weather View 32 v70,2013-04-01 07:55:00,
2013-04-01 01:00:00,56.9,47.9,29.95,WNW,289,3.0,8.0,72,0.00,,,0.00,Weather View 32 v70,2013-04-01 08:00:00,
2013-04-01 01:05:00,57.5,47.8,29.95,WNW,282,3.0,8.0,70,0.00,,,0.00,Weather View 32 v70,2013-04-01 08:05:00,
2013-04-01 01:10:00,58.1,48.0,29.95,West,261,5.0,11.0,69,0.00,,,0.00,Weather View 32 v70,2013-04-01 08:10:00,
2013-04-01 01:15:00,58.4,48.2,29.95,West,268,5.0,11.0,69,0.00,,,0.00,Weather View 32 v70,2013-04-01 08:15:00,
2013-04-01 01:19:00,58.6,48.0,29.95,West,271,4.0,11.0,68,0.00,,,0.00,Weather View 32 v70,2013-04-01 08:19:00,
2013-04-01 01:25:00,58.6,48.0,29.95,West,276,0.0,11.0,68,0.00,,,0.00,Weather View 32 v70,2013-04-01 08:25:00,
2013-04-01 01:29:00,58.4,48.2,29.96,West,264,3.0,11.0,69,0.00,,,0.00,Weather View 32 v70,2013-04-01 08:29:00,
2013-04-01 01:34:00,58.3,48.2,29.96,West,273,4.0,11.0,69,0.00,,,0.00,Weather View 32 v70,2013-04-01 08:34:00,
2013-04-01 01:39:00,58.1,48.0,29.96,SSW,209,7.0,11.0,69,0.00,,,0.00,Weather View 32 v70,2013-04-01 08:39:00,
2013-04-01 01:44:00,58.1,48.0,29.96,WSW,250,6.0,13.0,69,0.00,,,0.00,Weather View 32 v70,2013-04-01 08:44:00,
2013-04-01 01:49:00,58.3,48.2,29.96,North,0,1.0,13.0,69,0.00,,,0.00,Weather View 32 v70,2013-04-01 08:49:00,
2013-04-01 01:54:00,58.1,48.0,29.95,West,277,2.0,13.0,69,0.00,,,0.00,Weather View 32 v70,2013-04-01 08:54:00,
2013-04-01 01:59:00,58.0,48.2,29.96,WNW,297,3.0,13.0,70,0.00,,,0.00,Weather View 32 v70,2013-04-01 08:59:00,
2013-04-01 02:05:00,58.0,48.2,29.96,SSW,211,7.0,13.0,70,0.00,,,0.00,Weather View 32 v70,2013-04-01 09:05:00,
2013-04-01 02:10:00,58.0,48.2,29.96,WSW,244,8.0,13.0,70,0.00,,,0.00,Weather View 32 v70,2013-04-01 09:10:00,
2013-04-01 02:15:00,58.0,48.2,29.95,WNW,285,5.0,13.0,70,0.00,,,0.00,Weather View 32 v70,2013-04-01 09:15:00,
2013-04-01 02:20:00,57.8,48.1,29.96,West,272,4.0,13.0,70,0.00,,,0.00,Weather View 32 v70,2013-04-01 09:20:00,
2013-04-01 02:25:00,57.8,48.1,29.96,NNW,329,6.0,15.0,70,0.00,,,0.00,Weather View 32 v70,2013-04-01 09:25:00,
2013-04-01 02:30:00,57.6,47.9,29.96,West,273,6.0,15.0,70,0.00,,,0.00,Weather View 32 v70,2013-04-01 09:30:00,
2013-04-01 02:35:00,57.6,48.2,29.96,West,276,2.0,15.0,71,0.00,,,0.00,Weather View 32 v70,2013-04-01 09:35:00,
2013-04-01 02:40:00,57.6,48.2,29.96,WNW,283,3.0,15.0,71,0.00,,,0.00,Weather View 32 v70,2013-04-01 09:40:00,
2013-04-01 02:45:00,57.5,48.1,29.96,WSW,247,4.0,15.0,71,0.00,,,0.00,Weather View 32 v70,2013-04-01 09:45:00,
2013-04-01 02:49:00,57.3,48.0,29.96,West,259,4.0,15.0,71,0.00,,,0.00,Weather View 32 v70,2013-04-01 09:49:00,
2013-04-01 02:55:00,57.3,48.0,29.96,West,267,4.0,15.0,71,0.00,,,0.00,Weather View 32 v70,2013-04-01 09:55:00,
2013-04-01 03:00:00,57.2,48.2,29.96,WSW,242,2.0,15.0,72,0.00,,,0.00,Weather View 32 v70,2013-04-01 10:00:00,
2013-04-01 03:05:00,57.0,48.0,29.96,WNW,290,2.0,15.0,72,0.00,,,0.00,Weather View 32 v70,2013-04-01 10:05:00,
2013-04-01 03:10:00,56.9,47.9,29.96,WSW,242,3.0,15.0,72,0.00,,,0.00,Weather View 32 v70,2013-04-01 10:10:00,
2013-04-01 03:15:00,56.9,47.9,29.96,West,279,2.0,15.0,72,0.00,,,0.00,Weather View 32 v70,2013-04-01 10:15:00,
2013-04-01 03:20:00,56.7,47.8,29.96,West,273,0.0,15.0,72,0.00,,,0.00,Weather View 32 v70,2013-04-01 10:20:00,
2013-04-01 03:24:00,56.7,47.8,29.96,West,265,5.0,14.0,72,0.00,,,0.00,Weather View 32 v70,2013-04-01 10:24:00,
2013-04-01 03:29:00,56.7,47.8,29.96,West,260,2.0,11.0,72,0.00,,,0.00,Weather View 32 v70,2013-04-01 10:29:00,
2013-04-01 03:35:00,56.7,48.1,29.96,WSW,257,0.0,11.0,73,0.00,,,0.00,Weather View 32 v70,2013-04-01 10:35:00,
2013-04-01 03:40:00,56.5,47.9,29.96,West,263,1.0,11.0,73,0.00,,,0.00,Weather View 32 v70,2013-04-01 10:40:00,
2013-04-01 03:45:00,56.5,47.9,29.96,West,264,1.0,10.0,73,0.00,,,0.00,Weather View 32 v70,2013-04-01 10:45:00,
2013-04-01 03:49:00,56.5,47.9,29.96,West,261,2.0,10.0,73,0.00,,,0.00,Weather View 32 v70,2013-04-01 10:49:00,
2013-04-01 03:55:00,56.3,47.7,29.96,West,275,0.0,9.0,73,0.00,,,0.00,Weather View 32 v70,2013-04-01 10:55:00,
2013-04-01 04:00:00,56.3,47.7,29.96,West,260,4.0,9.0,73,0.00,,,0.00,Weather View 32 v70,2013-04-01 11:00:00,
2013-04-01 04:05:00,56.2,47.6,29.96,West,259,0.0,9.0,73,0.00,,,0.00,Weather View 32 v70,2013-04-01 11:05:00,
2013-04-01 04:10:00,55.9,47.7,29.96,West,259,0.0,9.0,74,0.00,,,0.00,Weather View 32 v70,2013-04-01 11:10:00,
2013-04-01 04:15:00,55.7,47.5,29.96,North,0,3.0,9.0,74,0.00,,,0.00,Weather View 32 v70,2013-04-01 11:15:00,
2013-04-01 04:20:00,55.9,48.1,29.96,West,271,1.0,9.0,75,0.00,,,0.00,Weather View 32 v70,2013-04-01 11:20:00,
2013-04-01 04:25:00,55.9,47.7,29.96,West,269,4.0,9.0,74,0.00,,,0.00,Weather View 32 v70,2013-04-01 11:25:00,
2013-04-01 04:30:00,55.9,47.7,29.96,WNW,303,2.0,9.0,74,0.00,,,0.00,Weather View 32 v70,2013-04-01 11:30:00,
2013-04-01 04:35:00,55.9,47.7,29.96,WSW,244,7.0,9.0,74,0.00,,,0.00,Weather View 32 v70,2013-04-01 11:35:00,
2013-04-01 04:39:00,55.9,47.7,29.96,West,263,3.0,9.0,74,0.00,,,0.00,Weather View 32 v70,2013-04-01 11:39:00,
2013-04-01 04:44:00,56.0,47.8,29.96,West,259,12.0,16.0,74,0.00,,,0.00,Weather View 32 v70,2013-04-01 11:44:00,
2013-04-01 04:49:00,56.0,47.8,29.97,WSW,253,3.0,16.0,74,0.00,,,0.00,Weather View 32 v70,2013-04-01 11:49:00,
2013-04-01 04:54:00,56.0,47.8,29.97,WSW,248,8.0,16.0,74,0.00,,,0.00,Weather View 32 v70,2013-04-01 11:54:00,
2013-04-01 04:59:00,56.0,47.8,29.97,West,261,8.0,16.0,74,0.00,,,0.00,Weather View 32 v70,2013-04-01 11:59:00,
2013-04-01 05:04:00,55.9,47.7,29.97,WSW,246,2.0,16.0,74,0.00,,,0.00,Weather View 32 v70,2013-04-01 12:04:00,
2013-04-01 05:09:00,55.9,47.7,29.97,West,267,2.0,16.0,74,0.00,,,0.00,Weather View 32 v70,2013-04-01 12:09:00,
2013-04-01 05:14:00,55.7,47.5,29.97,West,273,6.0,16.0,74,0.00,,,0.00,Weather View 32 v70,2013-04-01 12:14:00,
2013-04-01 05:19:00,55.7,47.9,29.97,WSW,250,2.0,16.0,75,0.00,,,0.00,Weather View 32 v70,2013-04-01 12:19:00,
2013-04-01 05:24:00,55.7,47.9,29.98,West,279,8.0,16.0,75,0.00,,,0.00,Weather View 32 v70,2013-04-01 12:24:00,
2013-04-01 05:29:00,55.7,47.9,29.98,WSW,258,3.0,16.0,75,0.00,,,0.00,Weather View 32 v70,2013-04-01 12:29:00,
2013-04-01 05:34:00,55.7,47.9,29.98,WNW,296,2.0,16.0,75,0.00,,,0.00,Weather View 32 v70,2013-04-01 12:34:00,
2013-04-01 05:39:00,55.6,47.8,29.98,WSW,246,7.0,16.0,75,0.00,,,0.00,Weather View 32 v70,2013-04-01 12:39:00,
2013-04-01 05:44:00,55.6,47.8,29.97,West,267,3.0,14.0,75,0.00,,,0.00,Weather View 32 v70,2013-04-01 12:44:00,
2013-04-01 05:49:00,55.6,47.8,29.97,West,260,0.0,14.0,75,0.00,,,0.00,Weather View 32 v70,2013-04-01 12:49:00,
2013-04-01 05:54:00,55.6,47.8,29.98,West,271,4.0,14.0,75,0.00,,,0.00,Weather View 32 v70,2013-04-01 12:54:00,
2013-04-01 05:59:00,55.6,47.8,29.98,SW,226,2.0,14.0,75,0.00,,,0.00,Weather View 32 v70,2013-04-01 12:59:00,
2013-04-01 06:04:00,55.6,47.8,29.98,West,266,2.0,15.0,75,0.00,,,0.00,Weather View 32 v70,2013-04-01 13:04:00,
2013-04-01 06:09:00,55.6,47.8,29.98,WSW,246,6.0,15.0,75,0.00,,,0.00,Weather View 32 v70,2013-04-01 13:09:00,
2013-04-01 06:14:00,55.6,47.8,29.98,WNW,288,3.0,15.0,75,0.00,,,0.00,Weather View 32 v70,2013-04-01 13:14:00,
2013-04-01 06:19:00,55.6,48.1,29.98,North,0,5.0,15.0,76,0.00,,,0.00,Weather View 32 v70,2013-04-01 13:19:00,
2013-04-01 06:24:00,55.6,47.8,29.98,WNW,284,4.0,15.0,75,0.00,,,0.00,Weather View 32 v70,2013-04-01 13:24:00,
2013-04-01 06:29:00,55.6,47.8,29.98,WSW,257,6.0,15.0,75,0.00,,,0.00,Weather View 32 v70,2013-04-01 13:29:00,
2013-04-01 06:34:00,55.6,47.8,29.98,SW,234,3.0,15.0,75,0.00,,,0.00,Weather View 32 v70,2013-04-01 13:34:00,
2013-04-01 06:39:00,55.6,47.8,29.99,West,263,4.0,15.0,75,0.00,,,0.00,Weather View 32 v70,2013-04-01 13:39:00,
2013-04-01 06:44:00,55.6,47.8,29.98,West,263,1.0,15.0,75,0.00,,,0.00,Weather View 32 v70,2013-04-01 13:44:00,
2013-04-01 06:49:00,55.6,47.8,29.99,WSW,244,6.0,15.0,75,0.00,,,0.00,Weather View 32 v70,2013-04-01 13:49:00,
2013-04-01 06:54:00,55.7,47.9,29.99,West,259,3.0,15.0,75,0.00,,,0.00,Weather View 32 v70,2013-04-01 13:54:00,
2013-04-01 06:59:00,55.6,48.1,29.99,West,268,1.0,15.0,76,0.00,,,0.00,Weather View 32 v70,2013-04-01 13:59:00,
2013-04-01 07:04:00,55.4,47.9,29.99,West,277,1.0,13.0,76,0.00,,,0.00,Weather View 32 v70,2013-04-01 14:04:00,
2013-04-01 07:09:00,55.6,48.1,30.00,West,262,5.0,13.0,76,0.00,,,0.00,Weather View 32 v70,2013-04-01 14:09:00,
2013-04-01 07:14:00,55.6,48.1,30.00,WNW,286,1.0,13.0,76,0.00,,,0.00,Weather View 32 v70,2013-04-01 14:14:00,
2013-04-01 07:19:00,55.6,48.1,30.00,West,266,2.0,13.0,76,0.00,,,0.00,Weather View 32 v70,2013-04-01 14:19:00,
2013-04-01 07:24:00,55.6,48.1,30.00,WSW,256,8.0,13.0,76,0.00,,,0.00,Weather View 32 v70,2013-04-01 14:24:00,
2013-04-01 07:29:00,55.6,47.8,30.00,West,274,4.0,13.0,75,0.00,,,0.00,Weather View 32 v70,2013-04-01 14:29:00,
2013-04-01 07:34:00,55.7,47.9,30.00,SSW,212,3.0,13.0,75,0.00,,,0.00,Weather View 32 v70,2013-04-01 14:34:00,
2013-04-01 07:39:00,55.9,48.1,30.00,West,281,4.0,13.0,75,0.00,,,0.00,Weather View 32 v70,2013-04-01 14:39:00,
2013-04-01 07:44:00,55.9,48.1,30.00,WNW,301,1.0,13.0,75,0.00,,,0.00,Weather View 32 v70,2013-04-01 14:44:00,
2013-04-01 07:49:00,55.9,47.7,30.00,WNW,290,3.0,13.0,74,0.00,,,0.00,Weather View 32 v70,2013-04-01 14:49:00,
2013-04-01 07:54:00,55.9,48.1,30.00,WNW,284,2.0,13.0,75,0.00,,,0.00,Weather View 32 v70,2013-04-01 14:54:00,
2013-04-01 07:59:00,55.9,48.1,30.01,West,280,3.0,14.0,75,0.00,,,0.00,Weather View 32 v70,2013-04-01 14:59:00,
2013-04-01 08:04:00,55.9,48.1,30.00,West,261,2.0,14.0,75,0.00,,,0.00,Weather View 32 v70,2013-04-01 15:04:00,
2013-04-01 08:09:00,56.0,48.2,30.01,West,278,3.0,14.0,75,0.00,,,0.00,Weather View 32 v70,2013-04-01 15:09:00,
2013-04-01 08:14:00,56.0,48.2,30.01,West,259,6.0,14.0,75,0.00,,,0.00,Weather View 32 v70,2013-04-01 15:14:00,
2013-04-01 08:19:00,56.2,48.4,30.01,WNW,300,3.0,14.0,75,0.00,,,0.00,Weather View 32 v70,2013-04-01 15:19:00,
2013-04-01 08:24:00,56.2,48.4,30.01,West,259,5.0,14.0,75,0.00,,,0.00,Weather View 32 v70,2013-04-01 15:24:00,
2013-04-01 08:29:00,56.3,48.5,30.01,SW,236,5.0,15.0,75,0.00,,,0.00,Weather View 32 v70,2013-04-01 15:29:00,
2013-04-01 08:34:00,56.5,48.3,30.01,WNW,285,5.0,15.0,74,0.00,,,0.00,Weather View 32 v70,2013-04-01 15:34:00,
2013-04-01 08:39:00,56.5,48.3,30.01,WNW,286,5.0,17.0,74,0.00,,,0.00,Weather View 32 v70,2013-04-01 15:39:00,
2013-04-01 08:44:00,56.6,48.8,30.01,West,267,11.0,17.0,75,0.00,,,0.00,Weather View 32 v70,2013-04-01 15:44:00,
2013-04-01 08:50:00,56.6,48.8,30.01,West,271,11.0,18.0,75,0.00,,,0.00,Weather View 32 v70,2013-04-01 15:50:00,
2013-04-01 08:55:00,56.9,48.7,30.01,West,263,19.0,23.0,74,0.00,,,0.00,Weather View 32 v70,2013-04-01 15:55:00,
2013-04-01 09:00:00,56.7,48.5,30.02,West,277,6.0,23.0,74,0.00,,,0.00,Weather View 32 v70,2013-04-01 16:00:00,
2013-04-01 09:05:00,56.6,48.4,30.02,WSW,244,9.0,23.0,74,0.00,,,0.00,Weather View 32 v70,2013-04-01 16:05:00,
2013-04-01 09:10:00,56.5,48.7,30.01,West,260,4.0,23.0,75,0.00,,,0.00,Weather View 32 v70,2013-04-01 16:10:00,
2013-04-01 09:14:00,56.5,48.7,30.02,WSW,242,7.0,23.0,75,0.00,,,0.00,Weather View 32 v70,2013-04-01 16:14:00,
2013-04-01 09:19:00,56.5,48.7,30.02,WSW,246,3.0,23.0,75,0.00,,,0.00,Weather View 32 v70,2013-04-01 16:19:00,
2013-04-01 09:24:00,56.7,48.8,30.02,SSW,201,3.0,23.0,75,0.00,,,0.00,Weather View 32 v70,2013-04-01 16:24:00,
2013-04-01 09:29:00,56.7,48.8,30.02,WSW,250,4.0,23.0,75,0.00,,,0.00,Weather View 32 v70,2013-04-01 16:29:00,
2013-04-01 09:34:00,56.7,48.8,30.02,WNW,298,5.0,23.0,75,0.00,,,0.00,Weather View 32 v70,2013-04-01 16:34:00,
2013-04-01 09:39:00,56.9,48.7,30.02,SW,234,5.0,23.0,74,0.00,,,0.00,Weather View 32 v70,2013-04-01 16:39:00,
2013-04-01 09:44:00,56.6,48.8,30.02,WSW,256,4.0,23.0,75,0.00,,,0.00,Weather View 32 v70,2013-04-01 16:44:00,
2013-04-01 09:49:00,56.6,48.8,30.02,WSW,254,5.0,23.0,75,0.00,,,0.00,Weather View 32 v70,2013-04-01 16:49:00,
2013-04-01 09:54:00,56.6,48.4,30.03,West,280,4.0,19.0,74,0.00,,,0.00,Weather View 32 v70,2013-04-01 16:54:00,
2013-04-01 09:59:00,56.7,48.8,30.03,WSW,249,9.0,17.0,75,0.00,,,0.00,Weather View 32 v70,2013-04-01 16:59:00,
2013-04-01 10:04:00,56.7,48.8,30.03,WSW,252,4.0,17.0,75,0.00,,,0.00,Weather View 32 v70,2013-04-01 17:04:00,
2013-04-01 10:09:00,56.7,48.5,30.03,SW,227,3.0,17.0,74,0.00,,,0.00,Weather View 32 v70,2013-04-01 17:09:00,
2013-04-01 10:14:00,56.7,48.5,30.03,SW,236,3.0,17.0,74,0.00,,,0.00,Weather View 32 v70,2013-04-01 17:14:00,
2013-04-01 10:19:00,56.9,48.7,30.03,WSW,252,6.0,17.0,74,0.00,,,0.00,Weather View 32 v70,2013-04-01 17:19:00,
2013-04-01 10:24:00,57.3,48.7,30.03,SW,220,5.0,17.0,73,0.00,,,0.00,Weather View 32 v70,2013-04-01 17:24:00,
2013-04-01 10:29:00,57.6,49.0,30.03,West,267,8.0,17.0,73,0.00,,,0.00,Weather View 32 v70,2013-04-01 17:29:00,
2013-04-01 10:34:00,57.8,48.8,30.03,West,259,7.0,15.0,72,0.00,,,0.00,Weather View 32 v70,2013-04-01 17:34:00,
2013-04-01 10:39:00,57.8,48.8,30.03,WSW,246,8.0,15.0,72,0.00,,,0.00,Weather View 32 v70,2013-04-01 17:39:00,
2013-04-01 10:44:00,58.0,49.0,30.04,West,264,3.0,15.0,72,0.00,,,0.00,Weather View 32 v70,2013-04-01 17:44:00,
2013-04-01 10:50:00,58.0,49.0,30.04,WSW,252,11.0,15.0,72,0.00,,,0.00,Weather View 32 v70,2013-04-01 17:50:00,
2013-04-01 10:54:00,58.1,49.1,30.04,West,280,8.0,15.0,72,0.00,,,0.00,Weather View 32 v70,2013-04-01 17:54:00,
2013-04-01 10:59:00,58.1,48.7,30.04,WSW,250,10.0,15.0,71,0.00,,,0.00,Weather View 32 v70,2013-04-01 17:59:00,
2013-04-01 11:04:00,58.6,49.2,30.04,WNW,289,7.0,15.0,71,0.00,,,0.00,Weather View 32 v70,2013-04-01 18:04:00,
2013-04-01 11:09:00,58.9,49.1,30.03,WNW,296,3.0,15.0,70,0.00,,,0.00,Weather View 32 v70,2013-04-01 18:09:00,
2013-04-01 11:14:00,59.2,49.0,30.03,North,0,9.0,15.0,69,0.00,,,0.00,Weather View 32 v70,2013-04-01 18:14:00,
2013-04-01 11:19:00,59.0,48.8,30.04,West,266,6.0,16.0,69,0.00,,,0.00,Weather View 32 v70,2013-04-01 18:19:00,
2013-04-01 11:24:00,59.5,49.3,30.04,SW,227,6.0,16.0,69,0.00,,,0.00,Weather View 32 v70,2013-04-01 18:24:00,
2013-04-01 11:29:00,59.2,48.6,30.04,WNW,285,9.0,16.0,68,0.00,,,0.00,Weather View 32 v70,2013-04-01 18:29:00,
2013-04-01 11:34:00,59.8,49.2,30.04,West,272,8.0,16.0,68,0.00,,,0.00,Weather View 32 v70,2013-04-01 18:34:00,
2013-04-01 11:39:00,59.8,49.2,30.04,WNW,296,9.0,16.0,68,0.00,,,0.00,Weather View 32 v70,2013-04-01 18:39:00,
2013-04-01 11:44:00,59.8,48.8,30.04,West,261,7.0,16.0,67,0.00,,,0.00,Weather View 32 v70,2013-04-01 18:44:00,
2013-04-01 11:49:00,59.9,48.9,30.04,WNW,292,3.0,16.0,67,0.00,,,0.00,Weather View 32 v70,2013-04-01 18:49:00,
2013-04-01 11:54:00,60.4,49.0,30.04,West,261,13.0,19.0,66,0.00,,,0.00,Weather View 32 v70,2013-04-01 18:54:00,
2013-04-01 11:59:00,60.2,48.4,30.03,West,274,13.0,19.0,65,0.00,,,0.00,Weather View 32 v70,2013-04-01 18:59:00,
2013-04-01 12:04:00,60.5,49.1,30.03,WNW,299,3.0,19.0,66,0.00,,,0.00,Weather View 32 v70,2013-04-01 19:04:00,
2013-04-01 12:09:00,61.0,49.1,30.03,West,262,16.0,21.0,65,0.00,,,0.00,Weather View 32 v70,2013-04-01 19:09:00,
2013-04-01 12:14:00,60.9,49.4,30.03,WSW,257,8.0,21.0,66,0.00,,,0.00,Weather View 32 v70,2013-04-01 19:14:00,
2013-04-01 12:19:00,60.9,48.6,30.03,WNW,288,6.0,21.0,64,0.00,,,0.00,Weather View 32 v70,2013-04-01 19:19:00,
2013-04-01 12:25:00,61.0,48.7,30.04,WNW,293,13.0,21.0,64,0.00,,,0.00,Weather View 32 v70,2013-04-01 19:25:00,
2013-04-01 12:30:00,61.0,48.3,30.03,WSW,245,7.0,24.0,63,0.00,,,0.00,Weather View 32 v70,2013-04-01 19:30:00,
2013-04-01 12:35:00,61.2,48.9,30.04,West,260,10.0,24.0,64,0.00,,,0.00,Weather View 32 v70,2013-04-01 19:35:00,
2013-04-01 12:40:00,61.3,48.6,30.04,NW,310,13.0,24.0,63,0.00,,,0.00,Weather View 32 v70,2013-04-01 19:40:00,
2013-04-01 12:45:00,61.5,48.8,30.04,WNW,286,4.0,24.0,63,0.00,,,0.00,Weather View 32 v70,2013-04-01 19:45:00,
2013-04-01 12:50:00,61.5,48.8,30.04,WNW,293,7.0,25.0,63,0.00,,,0.00,Weather View 32 v70,2013-04-01 19:50:00,
2013-04-01 12:55:00,61.5,48.3,30.04,WSW,258,10.0,25.0,62,0.00,,,0.00,Weather View 32 v70,2013-04-01 19:55:00,
2013-04-01 13:00:00,61.3,48.6,30.04,WNW,300,4.0,25.0,63,0.00,,,0.00,Weather View 32 v70,2013-04-01 20:00:00,
2013-04-01 13:05:00,61.6,48.8,30.04,West,271,7.0,25.0,63,0.00,,,0.00,Weather View 32 v70,2013-04-01 20:05:00,
2013-04-01 13:10:00,62.0,48.8,30.04,NW,304,7.0,25.0,62,0.00,,,0.00,Weather View 32 v70,2013-04-01 20:10:00,
2013-04-01 13:15:00,61.6,47.5,30.04,West,277,11.0,25.0,60,0.00,,,0.00,Weather View 32 v70,2013-04-01 20:15:00,
2013-04-01 13:20:00,62.0,47.9,30.04,West,265,8.0,25.0,60,0.00,,,0.00,Weather View 32 v70,2013-04-01 20:20:00,
2013-04-01 13:25:00,62.1,47.6,30.04,West,281,13.0,25.0,59,0.00,,,0.00,Weather View 32 v70,2013-04-01 20:25:00,
2013-04-01 13:30:00,62.6,48.0,30.04,WNW,293,8.0,25.0,59,0.00,,,0.00,Weather View 32 v70,2013-04-01 20:30:00,
2013-04-01 13:34:00,62.9,47.9,30.04,WNW,298,7.0,25.0,58,0.00,,,0.00,Weather View 32 v70,2013-04-01 20:34:00,
2013-04-01 13:39:00,63.2,48.1,30.04,North,351,9.0,25.0,58,0.00,,,0.00,Weather View 32 v70,2013-04-01 20:39:00,
2013-04-01 13:44:00,63.2,47.7,30.04,WSW,246,3.0,25.0,57,0.00,,,0.00,Weather View 32 v70,2013-04-01 20:44:00,
2013-04-01 13:50:00,63.4,46.9,30.04,WNW,285,5.0,24.0,55,0.00,,,0.00,Weather View 32 v70,2013-04-01 20:50:00,
2013-04-01 13:54:00,63.5,47.0,30.04,WNW,283,5.0,24.0,55,0.00,,,0.00,Weather View 32 v70,2013-04-01 20:54:00,
2013-04-01 14:00:00,63.7,47.2,30.04,WNW,286,12.0,23.0,55,0.00,,,0.00,Weather View 32 v70,2013-04-01 21:00:00,
2013-04-01 14:05:00,63.5,47.5,30.04,WNW,296,14.0,23.0,56,0.00,,,0.00,Weather View 32 v70,2013-04-01 21:05:00,
2013-04-01 14:10:00,63.5,47.0,30.04,NW,317,17.0,23.0,55,0.00,,,0.00,Weather View 32 v70,2013-04-01 21:10:00,
2013-04-01 14:14:00,63.4,47.4,30.04,WSW,241,13.0,22.0,56,0.00,,,0.00,Weather View 32 v70,2013-04-01 21:14:00,
2013-04-01 14:19:00,63.4,46.9,30.04,WSW,242,13.0,22.0,55,0.00,,,0.00,Weather View 32 v70,2013-04-01 21:19:00,
2013-04-01 14:25:00,63.4,46.9,30.04,WSW,257,9.0,22.0,55,0.00,,,0.00,Weather View 32 v70,2013-04-01 21:25:00,
2013-04-01 14:29:00,63.2,46.2,30.04,WNW,291,6.0,22.0,54,0.00,,,0.00,Weather View 32 v70,2013-04-01 21:29:00,
2013-04-01 14:34:00,63.4,46.4,30.04,West,265,3.0,22.0,54,0.00,,,0.00,Weather View 32 v70,2013-04-01 21:34:00,
2013-04-01 14:40:00,63.5,46.0,30.04,WSW,254,11.0,22.0,53,0.00,,,0.00,Weather View 32 v70,2013-04-01 21:40:00,
2013-04-01 14:45:00,63.4,46.4,30.04,WSW,248,6.0,22.0,54,0.00,,,0.00,Weather View 32 v70,2013-04-01 21:45:00,
2013-04-01 14:50:00,63.5,46.5,30.04,North,0,2.0,22.0,54,0.00,,,0.00,Weather View 32 v70,2013-04-01 21:50:00,
2013-04-01 14:55:00,63.4,46.4,30.04,WSW,257,16.0,27.0,54,0.00,,,0.00,Weather View 32 v70,2013-04-01 21:55:00,
2013-04-01 14:59:00,63.4,46.9,30.04,WNW,292,7.0,27.0,55,0.00,,,0.00,Weather View 32 v70,2013-04-01 21:59:00,
2013-04-01 15:05:00,63.2,46.2,30.04,WSW,245,7.0,27.0,54,0.00,,,0.00,Weather View 32 v70,2013-04-01 22:05:00,
2013-04-01 15:09:00,63.2,47.2,30.05,West,281,5.0,27.0,56,0.00,,,0.00,Weather View 32 v70,2013-04-01 22:09:00,
2013-04-01 15:14:00,62.7,46.7,30.05,West,264,12.0,27.0,56,0.00,,,0.00,Weather View 32 v70,2013-04-01 22:14:00,
2013-04-01 15:20:00,62.9,47.4,30.05,West,277,4.0,27.0,57,0.00,,,0.00,Weather View 32 v70,2013-04-01 22:20:00,
2013-04-01 15:24:00,63.1,47.1,30.05,West,260,3.0,27.0,56,0.00,,,0.00,Weather View 32 v70,2013-04-01 22:24:00,
2013-04-01 15:29:00,63.1,47.1,30.05,NW,306,9.0,27.0,56,0.00,,,0.00,Weather View 32 v70,2013-04-01 22:29:00,
2013-04-01 15:34:00,62.7,46.3,30.05,WNW,283,8.0,27.0,55,0.00,,,0.00,Weather View 32 v70,2013-04-01 22:34:00,
2013-04-01 15:39:00,62.9,46.9,30.05,West,267,2.0,27.0,56,0.00,,,0.00,Weather View 32 v70,2013-04-01 22:39:00,
2013-04-01 15:44:00,63.4,47.4,30.06,WNW,290,5.0,27.0,56,0.00,,,0.00,Weather View 32 v70,2013-04-01 22:44:00,
2013-04-01 15:49:00,63.5,47.0,30.05,West,279,8.0,27.0,55,0.00,,,0.00,Weather View 32 v70,2013-04-01 22:49:00,
2013-04-01 15:54:00,63.2,46.7,30.05,WNW,284,8.0,27.0,55,0.00,,,0.00,Weather View 32 v70,2013-04-01 22:54:00,
2013-04-01 16:00:00,62.9,46.9,30.06,West,269,8.0,21.0,56,0.00,,,0.00,Weather View 32 v70,2013-04-01 23:00:00,
2013-04-01 16:04:00,62.4,46.5,30.06,WNW,298,5.0,20.0,56,0.00,,,0.00,Weather View 32 v70,2013-04-01 23:04:00,
2013-04-01 16:09:00,62.1,47.1,30.06,WNW,283,4.0,20.0,58,0.00,,,0.00,Weather View 32 v70,2013-04-01 23:09:00,
2013-04-01 16:14:00,62.6,47.1,30.06,WSW,245,5.0,20.0,57,0.00,,,0.00,Weather View 32 v70,2013-04-01 23:14:00,
2013-04-01 16:19:00,63.1,48.0,30.06,West,274,1.0,20.0,58,0.00,,,0.00,Weather View 32 v70,2013-04-01 23:19:00,
2013-04-01 16:24:00,63.4,46.9,30.06,WSW,245,6.0,20.0,55,0.00,,,0.00,Weather View 32 v70,2013-04-01 23:24:00,
2013-04-01 16:30:00,63.2,47.2,30.06,West,264,2.0,20.0,56,0.00,,,0.00,Weather View 32 v70,2013-04-01 23:30:00,
2013-04-01 16:35:00,63.9,47.4,30.06,WNW,284,2.0,18.0,55,0.00,,,0.00,Weather View 32 v70,2013-04-01 23:35:00,
2013-04-01 16:40:00,63.7,46.7,30.06,West,268,7.0,18.0,54,0.00,,,0.00,Weather View 32 v70,2013-04-01 23:40:00,
2013-04-01 16:45:00,63.5,46.5,30.06,WNW,301,5.0,18.0,54,0.00,,,0.00,Weather View 32 v70,2013-04-01 23:45:00,
2013-04-01 16:50:00,63.2,46.2,30.06,West,272,5.0,18.0,54,0.00,,,0.00,Weather View 32 v70,2013-04-01 23:50:00,
2013-04-01 16:55:00,63.4,46.4,30.06,WNW,301,3.0,18.0,54,0.00,,,0.00,Weather View 32 v70,2013-04-01 23:55:00,
2013-04-01 17:00:00,63.4,46.4,30.06,West,273,4.0,18.0,54,0.00,,,0.00,Weather View 32 v70,2013-04-02 00:00:00,
2013-04-01 17:05:00,62.7,46.3,30.06,WNW,296,3.0,18.0,55,0.00,,,0.00,Weather View 32 v70,2013-04-02 00:05:00,
2013-04-01 17:10:00,62.6,46.2,30.06,NW,307,7.0,16.0,55,0.00,,,0.00,Weather View 32 v70,2013-04-02 00:10:00,
2013-04-01 17:15:00,62.4,46.5,30.06,NW,312,4.0,16.0,56,0.00,,,0.00,Weather View 32 v70,2013-04-02 00:15:00,
2013-04-01 17:20:00,62.1,46.6,30.06,West,274,5.0,16.0,57,0.00,,,0.00,Weather View 32 v70,2013-04-02 00:20:00,
2013-04-01 17:25:00,62.0,46.6,30.06,NW,306,1.0,15.0,57,0.00,,,0.00,Weather View 32 v70,2013-04-02 00:25:00,
2013-04-01 17:30:00,61.6,46.2,30.06,WNW,282,3.0,15.0,57,0.00,,,0.00,Weather View 32 v70,2013-04-02 00:30:00,
2013-04-01 17:35:00,61.6,46.2,30.06,West,266,4.0,15.0,57,0.00,,,0.00,Weather View 32 v70,2013-04-02 00:35:00,
2013-04-01 17:40:00,61.8,46.4,30.06,West,278,4.0,15.0,57,0.00,,,0.00,Weather View 32 v70,2013-04-02 00:40:00,
2013-04-01 17:45:00,62.1,46.2,30.06,West,273,3.0,15.0,56,0.00,,,0.00,Weather View 32 v70,2013-04-02 00:45:00,
2013-04-01 17:50:00,62.4,46.0,30.06,West,277,4.0,15.0,55,0.00,,,0.00,Weather View 32 v70,2013-04-02 00:50:00,
2013-04-01 17:55:00,62.7,46.3,30.06,WSW,246,9.0,15.0,55,0.00,,,0.00,Weather View 32 v70,2013-04-02 00:55:00,
2013-04-01 18:00:00,62.4,46.0,30.06,WSW,247,4.0,15.0,55,0.00,,,0.00,Weather View 32 v70,2013-04-02 01:00:00,
2013-04-01 18:05:00,62.1,46.2,30.06,WSW,242,1.0,15.0,56,0.00,,,0.00,Weather View 32 v70,2013-04-02 01:05:00,
2013-04-01 18:10:00,61.8,45.9,30.06,West,277,3.0,15.0,56,0.00,,,0.00,Weather View 32 v70,2013-04-02 01:10:00,
2013-04-01 18:15:00,61.5,46.5,30.06,West,263,3.0,15.0,58,0.00,,,0.00,Weather View 32 v70,2013-04-02 01:15:00,
2013-04-01 18:20:00,61.3,46.4,30.06,West,261,1.0,15.0,58,0.00,,,0.00,Weather View 32 v70,2013-04-02 01:20:00,
2013-04-01 18:25:00,61.2,46.3,30.06,SW,217,2.0,15.0,58,0.00,,,0.00,Weather View 32 v70,2013-04-02 01:25:00,
2013-04-01 18:30:00,61.0,46.5,30.06,West,277,1.0,15.0,59,0.00,,,0.00,Weather View 32 v70,2013-04-02 01:30:00,
2013-04-01 18:35:00,60.9,46.4,30.06,West,270,2.0,14.0,59,0.00,,,0.00,Weather View 32 v70,2013-04-02 01:35:00,
2013-04-01 18:40:00,60.9,46.9,30.06,West,266,4.0,12.0,60,0.00,,,0.00,Weather View 32 v70,2013-04-02 01:40:00,
2013-04-01 18:45:00,60.9,46.9,30.06,WNW,282,9.0,12.0,60,0.00,,,0.00,Weather View 32 v70,2013-04-02 01:45:00,
2013-04-01 18:49:00,60.9,46.9,30.07,NNW,332,3.0,12.0,60,0.00,,,0.00,Weather View 32 v70,2013-04-02 01:49:00,
2013-04-01 18:54:00,60.7,47.1,30.06,West,269,2.0,12.0,61,0.00,,,0.00,Weather View 32 v70,2013-04-02 01:54:00,
2013-04-01 18:59:00,60.4,46.9,30.07,West,271,2.0,12.0,61,0.00,,,0.00,Weather View 32 v70,2013-04-02 01:59:00,
2013-04-01 19:05:00,60.2,47.1,30.06,WSW,254,7.0,12.0,62,0.00,,,0.00,Weather View 32 v70,2013-04-02 02:05:00,
2013-04-01 19:10:00,60.2,47.1,30.06,SW,221,2.0,12.0,62,0.00,,,0.00,Weather View 32 v70,2013-04-02 02:10:00,
2013-04-01 19:15:00,60.1,47.0,30.06,WSW,242,2.0,12.0,62,0.00,,,0.00,Weather View 32 v70,2013-04-02 02:15:00,
2013-04-01 19:20:00,59.9,47.2,30.07,West,277,2.0,12.0,63,0.00,,,0.00,Weather View 32 v70,2013-04-02 02:20:00,
2013-04-01 19:24:00,59.6,47.0,30.07,WSW,242,3.0,11.0,63,0.00,,,0.00,Weather View 32 v70,2013-04-02 02:24:00,
2013-04-01 19:29:00,59.6,47.4,30.07,West,273,0.0,11.0,64,0.00,,,0.00,Weather View 32 v70,2013-04-02 02:29:00,
2013-04-01 19:34:00,59.5,47.3,30.07,SW,216,3.0,10.0,64,0.00,,,0.00,Weather View 32 v70,2013-04-02 02:34:00,
2013-04-01 19:40:00,59.5,47.7,30.07,West,277,1.0,10.0,65,0.00,,,0.00,Weather View 32 v70,2013-04-02 02:40:00,
2013-04-01 19:45:00,59.3,47.5,30.07,WSW,237,4.0,10.0,65,0.00,,,0.00,Weather View 32 v70,2013-04-02 02:45:00,
2013-04-01 19:50:00,59.2,47.4,30.07,West,265,1.0,10.0,65,0.00,,,0.00,Weather View 32 v70,2013-04-02 02:50:00,
2013-04-01 19:54:00,59.2,47.4,30.07,West,262,1.0,10.0,65,0.00,,,0.00,Weather View 32 v70,2013-04-02 02:54:00,
2013-04-01 19:59:00,59.2,47.4,30.07,West,268,7.0,11.0,65,0.00,,,0.00,Weather View 32 v70,2013-04-02 02:59:00,
2013-04-01 20:04:00,59.3,47.5,30.07,West,265,10.0,14.0,65,0.00,,,0.00,Weather View 32 v70,2013-04-02 03:04:00,
2013-04-01 20:09:00,59.3,47.5,30.07,WSW,244,4.0,14.0,65,0.00,,,0.00,Weather View 32 v70,2013-04-02 03:09:00,
2013-04-01 20:15:00,59.2,47.8,30.07,West,265,6.0,14.0,66,0.00,,,0.00,Weather View 32 v70,2013-04-02 03:15:00,
2013-04-01 20:20:00,59.0,47.6,30.08,SW,236,1.0,14.0,66,0.00,,,0.00,Weather View 32 v70,2013-04-02 03:20:00,
2013-04-01 20:25:00,59.0,48.0,30.08,West,270,5.0,14.0,67,0.00,,,0.00,Weather View 32 v70,2013-04-02 03:25:00,
2013-04-01 20:30:00,58.9,47.9,30.08,SSW,205,1.0,14.0,67,0.00,,,0.00,Weather View 32 v70,2013-04-02 03:30:00,
2013-04-01 20:35:00,58.7,48.1,30.08,West,272,3.0,14.0,68,0.00,,,0.00,Weather View 32 v70,2013-04-02 03:35:00,
2013-04-01 20:40:00,58.7,48.1,30.08,West,269,1.0,14.0,68,0.00,,,0.00,Weather View 32 v70,2013-04-02 03:40:00,
2013-04-01 20:45:00,58.7,48.1,30.08,WSW,257,2.0,14.0,68,0.00,,,0.00,Weather View 32 v70,2013-04-02 03:45:00,
2013-04-01 20:50:00,58.7,48.1,30.08,WSW,253,2.0,14.0,68,0.00,,,0.00,Weather View 32 v70,2013-04-02 03:50:00,
2013-04-01 20:55:00,58.6,48.4,30.08,WSW,254,3.0,14.0,69,0.00,,,0.00,Weather View 32 v70,2013-04-02 03:55:00,
2013-04-01 21:00:00,58.7,48.1,30.08,West,277,0.0,14.0,68,0.00,,,0.00,Weather View 32 v70,2013-04-02 04:00:00,
2013-04-01 21:10:00,58.6,48.4,30.08,West,266,1.0,12.0,69,0.00,,,0.00,Weather View 32 v70,2013-04-02 04:10:00,
2013-04-01 21:15:00,58.4,48.2,30.08,WSW,252,3.0,12.0,69,0.00,,,0.00,Weather View 32 v70,2013-04-02 04:15:00,
2013-04-01 21:20:00,58.3,48.2,30.09,West,262,4.0,12.0,69,0.00,,,0.00,Weather View 32 v70,2013-04-02 04:20:00,
2013-04-01 21:25:00,58.1,48.3,30.08,WNW,283,1.0,11.0,70,0.00,,,0.00,Weather View 32 v70,2013-04-02 04:25:00,
2013-04-01 21:30:00,58.1,48.3,30.09,West,261,1.0,11.0,70,0.00,,,0.00,Weather View 32 v70,2013-04-02 04:30:00,
2013-04-01 21:35:00,58.1,48.3,30.08,West,261,0.0,11.0,70,0.00,,,0.00,Weather View 32 v70,2013-04-02 04:35:00,
2013-04-01 21:40:00,58.1,48.3,30.08,West,275,0.0,11.0,70,0.00,,,0.00,Weather View 32 v70,2013-04-02 04:40:00,
2013-04-01 21:45:00,58.1,48.3,30.08,West,267,7.0,12.0,70,0.00,,,0.00,Weather View 32 v70,2013-04-02 04:45:00,
2013-04-01 21:50:00,58.1,48.3,30.09,West,267,3.0,12.0,70,0.00,,,0.00,Weather View 32 v70,2013-04-02 04:50:00,
2013-04-01 21:55:00,58.1,48.7,30.09,SSW,210,2.0,12.0,71,0.00,,,0.00,Weather View 32 v70,2013-04-02 04:55:00,
2013-04-01 22:00:00,58.3,48.9,30.09,WSW,258,1.0,12.0,71,0.00,,,0.00,Weather View 32 v70,2013-04-02 05:00:00,
2013-04-01 22:05:00,58.1,48.7,30.09,West,267,0.0,12.0,71,0.00,,,0.00,Weather View 32 v70,2013-04-02 05:05:00,
2013-04-01 22:10:00,58.1,48.7,30.08,SW,215,2.0,12.0,71,0.00,,,0.00,Weather View 32 v70,2013-04-02 05:10:00,
2013-04-01 22:15:00,58.1,48.7,30.09,SW,229,1.0,12.0,71,0.00,,,0.00,Weather View 32 v70,2013-04-02 05:15:00,
2013-04-01 22:20:00,58.0,49.0,30.09,West,261,3.0,12.0,72,0.00,,,0.00,Weather View 32 v70,2013-04-02 05:20:00,
2013-04-01 22:25:00,58.0,49.0,30.09,SW,228,4.0,12.0,72,0.00,,,0.00,Weather View 32 v70,2013-04-02 05:25:00,
2013-04-01 22:30:00,58.1,49.1,30.09,SSW,209,5.0,12.0,72,0.00,,,0.00,Weather View 32 v70,2013-04-02 05:30:00,
2013-04-01 22:35:00,58.3,49.3,30.09,WSW,248,7.0,12.0,72,0.00,,,0.00,Weather View 32 v70,2013-04-02 05:35:00,
2013-04-01 22:40:00,58.3,49.3,30.09,West,266,5.0,12.0,72,0.00,,,0.00,Weather View 32 v70,2013-04-02 05:40:00,
2013-04-01 22:45:00,58.4,49.0,30.09,West,274,4.0,12.0,71,0.00,,,0.00,Weather View 32 v70,2013-04-02 05:45:00,
2013-04-01 22:50:00,58.4,49.0,30.09,West,273,2.0,12.0,71,0.00,,,0.00,Weather View 32 v70,2013-04-02 05:50:00,
2013-04-01 22:54:00,58.3,48.9,30.09,West,266,3.0,12.0,71,0.00,,,0.00,Weather View 32 v70,2013-04-02 05:54:00,
2013-04-01 22:59:00,58.1,48.7,30.09,West,269,4.0,14.0,71,0.00,,,0.00,Weather View 32 v70,2013-04-02 05:59:00,
2013-04-01 23:04:00,58.1,48.7,30.09,West,264,3.0,14.0,71,0.00,,,0.00,Weather View 32 v70,2013-04-02 06:04:00,
2013-04-01 23:09:00,58.1,48.7,30.09,WSW,257,4.0,14.0,71,0.00,,,0.00,Weather View 32 v70,2013-04-02 06:09:00,
2013-04-01 23:14:00,58.0,48.6,30.09,West,272,2.0,14.0,71,0.00,,,0.00,Weather View 32 v70,2013-04-02 06:14:00,
2013-04-01 23:19:00,58.0,48.6,30.09,West,277,4.0,14.0,71,0.00,,,0.00,Weather View 32 v70,2013-04-02 06:19:00,
2013-04-01 23:25:00,58.0,48.6,30.09,SW,232,3.0,14.0,71,0.00,,,0.00,Weather View 32 v70,2013-04-02 06:25:00,
2013-04-01 23:30:00,58.0,48.2,30.09,WSW,244,4.0,14.0,70,0.00,,,0.00,Weather View 32 v70,2013-04-02 06:30:00,
2013-04-01 23:35:00,58.0,48.2,30.09,West,277,3.0,14.0,70,0.00,,,0.00,Weather View 32 v70,2013-04-02 06:35:00,
2013-04-01 23:40:00,58.0,48.2,30.09,WSW,257,2.0,17.0,70,0.00,,,0.00,Weather View 32 v70,2013-04-02 06:40:00,
2013-04-01 23:45:00,57.8,48.1,30.09,WSW,244,8.0,17.0,70,0.00,,,0.00,Weather View 32 v70,2013-04-02 06:45:00,
2013-04-01 23:50:00,57.8,48.1,30.09,West,265,3.0,17.0,70,0.00,,,0.00,Weather View 32 v70,2013-04-02 06:50:00,
2013-04-01 23:55:00,57.8,48.1,30.10,WSW,250,3.0,17.0,70,0.00,,,0.00,Weather View 32 v70,2013-04-02 06:55:00,